Regional Weather Roundup
Issued by NWS Binghamton, NY

Home | Current Version | Previous Version | Text Only | Print | Product List | Glossary On
Versions: 1 2 3 4 5 6 7 8 9 10 11 12 13 14 15 16 17 18 19 20 21 22 23 24 25 26 27
000
ASUS41 KBGM 210910
RWRBGM

REGIONAL WEATHER ROUNDUP
NATIONAL WEATHER SERVICE BINGHAMTON NY
400 AM EST SAT JAN 21 2017

Note: "fair" indicates few or no clouds below 12,000 feet with no
significant weather and/or obstructions to visibility.

* = Station(s) that does not report precipitation, such as rain,
snow, etc, also no thunder or fog.

NYZ009-015>018-022>025-036-037-044>046-055>057-062-211000
...Central New York...

CITY           SKY/WX    TMP DP  RH WIND       PRES   REMARKS
Binghamton     CLOUDY    37  37 100 S6        29.82S FOG     WCI  32
Cortland       CLOUDY    37  37 100 CALM      29.82S FOG
Dansville      CLOUDY    46  43  89 CALM      29.81S
Elmira         CLOUDY    39  36  89 CALM      29.85R FOG
Seneca Falls   CLOUDY    45  43  93 S7        29.83R
Ithaca         CLOUDY    41  39  93 S9        29.83F
Hamilton       CLOUDY    37  36  93 SE6       29.82F WCI  33
Monticello     CLOUDY    36  34  93 CALM      29.86F VSB 1/4
Norwich        CLOUDY    37  37 100 SE8       29.84F WCI  31
Oneonta        FOG       36  36 100 SW8       29.82S VSB 1/2 WCI  29
Penn Yan       CLOUDY    44  38  79 SW13      29.81F
Rome           CLOUDY    37  37 100 E7        29.84S FOG     WCI  32
Sidney         CLOUDY    37  37 100 CALM      29.85F
Syracuse       CLOUDY    37  37 100 E3        29.81S
$$

PAZ038>040-043-044-047-048-072-211000
...Northeast Pennsylvania...

CITY           SKY/WX    TMP DP  RH WIND       PRES   REMARKS
Hazleton       FOG       37  37 100 CALM      29.90S VSB 1/4
Scranton       FOG       39  39 100 CALM      29.87F VSB 1
$$
&&
KEY
WCI = Wind Chill Index
VSB = Visibility
HX  = Heat Index
$$




USA.gov is the U.S. government's official web portal to all federal, state and local government web resources and services.